Regional Weather Roundup
Issued by NWS Upton, NY

Current Version | Previous Version | Graphics & Text | Print | Product List | Glossary Off
Versions: 1 2 3 4 5 6 7 8 9 10 11 12 13 14 15 16 17 18 19 20 21 22 23 24 25 26 27 28 29 30 31 32 33 34 35 36 37 38 39 40 41 42 43 44 45 46 47 48

000
ASUS41 KOKX 280905
RWROKX

REGIONAL WEATHER ROUNDUP
NATIONAL WEATHER SERVICE NEW YORK NY
400 AM EST SAT FEB 28 2015

NOTE: "FAIR" INDICATES FEW OR NO CLOUDS BELOW 12,000 FEET WITH NO
SIGNIFICANT WEATHER AND/OR OBSTRUCTIONS TO VISIBILITY.

NYZ071-072-176-178-NJZ106-104-281000-
NEW YORK CITY METRO AREA


CITY           SKY/WX    TMP DP  RH WIND       PRES   REMARKS
CENTRAL PARK   CLEAR     16  -5  39 VRB5      30.70R WCI   9
LAGUARDIA APRT PTCLDY    17  -2  43 NW8       30.68R WCI   7
KENNEDY INTL   CLEAR     18  -3  39 NW12      30.69R WCI   5
NEWARK/LIBERTY PTCLDY    15  -4  42 N13       30.70R WCI   1
BRNX BOT. GARD   N/A    N/A N/A N/A NW7       30.70S
TETERBORO      CLEAR     13  -5  44 NW7       30.69R WCI   3
$$

NYZ177-179-078>081-281000-
LONG ISLAND NEW YORK

CITY           SKY/WX    TMP DP  RH WIND       PRES   REMARKS
FARMINGDALE    CLEAR     16   1  51 N6        30.67R WCI   7
ISLIP          CLEAR     15   3  59 N7        30.65R WCI   5
SHIRLEY        CLEAR     13   2  61 N5        30.68R WCI   5
WESTHAMPTON    CLEAR      7  -3  64 N5        30.67R WCI  -2
MONTAUK POINT    N/A     18   4  54 NW10      30.65R WCI   6
$$

NYZ052-065-067-281000-
HUDSON VALLEY

CITY           SKY/WX    TMP DP  RH WIND       PRES   REMARKS
WHITE PLAINS   CLEAR      9  -3  58 NW5       30.63R WCI   1
NEWBURGH       CLEAR     16   1  53 NW9       30.63S WCI   4
MONTGOMERY     CLEAR      2  -9  60 E3        30.64R
POUGHKEEPSIE   CLEAR     -1  -7  75 CALM      30.68R
ALBANY         PTCLDY     7  -4  60 W3        30.70R
$$

NJZ001-105-106-008-010-013-015-019>022-104-281000-
NEW JERSEY

CITY           SKY/WX    TMP DP  RH WIND       PRES   REMARKS
NEWARK/LIBERTY PTCLDY    15  -4  42 N13       30.70R WCI   1
TETERBORO      CLEAR     13  -5  44 NW7       30.69R WCI   3
CALDWELL       CLEAR     10  -7  46 CALM      30.69R
MORRISTOWN     CLEAR      9  -6  52 CALM      30.69R
SOMERVILLE     CLEAR     13  -7  40 NW6       30.69R WCI   4
SUSSEX         MIX PCPN   7  -8  50 VRB3      30.65R
ANDOVER          N/A      1  -8  66 CALM      30.66R
TRENTON        PTCLDY    15  -3  44 N6        30.70R WCI   6
MILLVILLE      PTCLDY   N/A N/A N/A N6        30.70R
ATLANTIC CITY  NOT AVBL
WRIGHTSTOWN    PTCLDY    15  -1  50 NW8       30.69R WCI   4
TOMS RIVER     PTCLDY    14   1  57 NW7       30.70R WCI   4
BELMAR         CLEAR     16  -2  45 NW7       30.68R WCI   6
$$

PAZ047>061-062-071-281000-
EASTERN PENNSYLVANIA

CITY           SKY/WX    TMP DP  RH WIND       PRES   REMARKS
PHILADELPHIA   PTCLDY    18   0  45 N10       30.74R WCI   6
ALLENTOWN      CLEAR     10  -6  48 W5        30.69R WCI   2
SCRANTON       CLEAR      6  -6  57 NE3       30.65R
$$

CTZ002-004>006-009-010-012-RIZ004-006-007-MAZ004-011-015-281000-
SOUTHERN NEW ENGLAND
 IN CT

CITY           SKY/WX    TMP DP  RH WIND       PRES   REMARKS
BRADLEY INTL   CLEAR      3  -6  66 NW5       30.64R WCI  -6
HARTFORD       CLEAR     10  -1  61 VRB3      30.68R
DANBURY        CLEAR      3  -6  66 W3        30.65R
WTRBRY/OXFORD  CLEAR      3 -11  51 N7        30.61R WCI  -9
BRIDGEPORT     FAIR      12   0  58 CALM      30.68R
MERIDEN        CLEAR      3  -4  72 CALM      30.67R
NEW HAVEN      CLEAR     12  -1  56 N6        30.67R WCI   3
CHESTER        FAIR      12   1  62 N7        30.63R WCI   2
GROTON         CLEAR     11   0  61 N12       30.64R WCI  -3
WILLIMANTIC    CLEAR      3  -5  69 CALM      30.63R

 IN RI

CITY           SKY/WX    TMP DP  RH WIND       PRES   REMARKS
PROVIDENCE     CLEAR     13  -2  51 NW7       30.62R WCI   3
BLOCK ISLAND   CLEAR     16   1  53 N8        30.60R WCI   5
WESTERLY       CLEAR     12  -1  56 N9        30.63R WCI   0

 IN MA

CITY           SKY/WX    TMP DP  RH WIND       PRES   REMARKS
BOSTON         CLEAR     14  -1  51 NW12      30.62R WCI   0
WORCESTER      CLEAR      6  -5  60 NW10      30.52S WCI  -9
WESTFIELD      CLEAR      0  -7  72 CALM      30.64R
PROVINCETOWN   CLEAR     21   9  58 NW14G20   30.59R WCI   8
NANTUCKET      CLEAR     20   9  62 NW6       30.59R WCI  12
$$

ANZ330-335-338-340-345-350-353-355-281000-
COASTAL MARINE OBSERVATIONS


STATION/POSITION TIME  SKY/WX   TEMP    WIND        PRES    VSBY  WAVE
                                AIR SEA DIR/SP/G                  HT/PER
                 (UTC)          (F)     (DEG/KT/KT) (MB)    (MI)  (FT/S)
NY HARB ENTRANCE 0900            22 38  340/ 21/ 27 1038.3          3/10
4S FIRE IS       0800               32                N/A           4/10
20S FIRE ISLAND  0800               37              1037.8          5/11
23SW MTP         0900                                 N/A           4/11
HUDSON CANYON    NOT AVBL
EXECUTION ROCKS  NOT AVBL
WESTERN LI SOUND NOT AVBL
CENTRAL LI SOUND NOT AVBL
EASTERN LI SOUND NOT AVBL
ROBBINS REEF     0900            16     330/ 11/ 14 1038.0
$$


>>>>>>>>>>>>>>>>>>>>>>>>>>>> KEY <<<<<<<<<<<<<<<<<<<<<<<<<<<
>                                                          <
>     SKY/WX - SKY CONDITION/PRESENT WEATHER               <
>     TMP    - TEMPERATURE IN FAHRENHEIT                   <
>     DP     - DEWPOINT IN FAHRENHEIT                      <
>     RH     - RELATIVE HUMIDITY IN PERCENT                <
>     WIND   - DIRECTION AND SPEED IN MPH                  <
>     PRES   - MEAN SEA LEVEL PRESSURE IN INCHES OF HG     <
>     WCI    - WIND CHILL INDEX                            <
>     VSB    - VISIBILITY IN MILES                         <
>     HX     - HEAT INDEX                                  <
>     TC     - TEMPERATURE IN CELSIUS                      <
>     VRB    - VARIABLE WIND DIRECTION                     <
>                                                          <
>>>>>>>>>>>>>>>>>>>>>>>>>>>> KEY <<<<<<<<<<<<<<<<<<<<<<<<<<<




USA.gov is the U.S. government's official web portal to all federal, state and local government web resources and services.